Tracking 35237 objects as of 6-Sep-2026
HD Live streaming from Space Station
objects crossing your sky now

BREEZE-M R/B

Track BREEZE-M R/B now!


NORAD ID: 37186
Int'l Code: 2010-053B
Launch date: October 14, 2010
Source: Commonwealth of Independent States (former USSR) (CIS)
Launch site: TYURATAM MISSILE AND SPACE COMPLEX (TTMTR)

Note: This is a ROCKET BODY
Your satellite tracking list
Your tracking list is empty




NASA's NSSDC Master Catalog

Two Line Element Set (TLE):
1 37186U 10053B   26249.22532449 -.00000006  00000-0  00000-0 0  9995
2 37186  22.4858 286.0239 6053695 161.0785 270.7760  2.17042841126016
Source of the keplerian elements: AFSPC